Time,TemperatureF,DewpointF,PressureIn,WindDirection,WindDirectionDegrees,WindSpeedMPH,WindSpeedGustMPH,Humidity,HourlyPrecipIn,Conditions,Clouds,dailyrainin,SolarRadiationWatts/m^2,SoftwareType,DateUTC
2013-03-11 00:22:00,47.0,35.0,-100.00,SSE,152,0.0,7.0,64,0.00,,,0.00,0.000000,,2013-03-11 07:22:00,
2013-03-11 00:32:00,47.0,35.0,-100.00,SSE,152,0.0,7.0,64,0.00,,,0.00,0.000000,,2013-03-11 07:32:00,
2013-03-11 00:42:00,47.0,35.0,-100.00,SSE,152,0.0,7.0,64,0.00,,,0.00,0.000000,,2013-03-11 07:42:00,
2013-03-11 00:52:00,47.0,35.0,-100.00,SSE,152,0.0,7.0,64,0.00,,,0.00,0.000000,,2013-03-11 07:52:00,
2013-03-11 01:22:00,44.0,31.0,-100.00,North,7,3.0,5.0,60,0.00,,,0.00,0.000000,,2013-03-11 08:22:00,
2013-03-11 01:32:00,44.0,31.0,-100.00,North,7,3.0,5.0,60,0.00,,,0.00,0.000000,,2013-03-11 08:32:00,
2013-03-11 01:42:00,44.0,31.0,-100.00,North,7,3.0,5.0,60,0.00,,,0.00,0.000000,,2013-03-11 08:42:00,
2013-03-11 01:52:00,44.0,31.0,-100.00,North,7,3.0,5.0,60,0.00,,,0.00,0.000000,,2013-03-11 08:52:00,
2013-03-11 02:22:00,45.0,29.0,-100.00,NNE,16,7.0,13.0,54,0.00,,,0.00,0.000000,,2013-03-11 09:22:00,
2013-03-11 02:32:00,45.0,29.0,-100.00,NNE,16,7.0,13.0,54,0.00,,,0.00,0.000000,,2013-03-11 09:32:00,
2013-03-11 02:42:00,45.0,29.0,-100.00,NNE,16,7.0,13.0,54,0.00,,,0.00,0.000000,,2013-03-11 09:42:00,
2013-03-11 02:52:00,45.0,29.0,-100.00,NNE,16,7.0,13.0,54,0.00,,,0.00,0.000000,,2013-03-11 09:52:00,
2013-03-11 03:22:00,43.0,29.0,-100.00,North,353,2.0,12.0,57,0.00,,,0.00,0.000000,,2013-03-11 10:22:00,
2013-03-11 03:32:00,43.0,29.0,-100.00,North,353,2.0,12.0,57,0.00,,,0.00,0.000000,,2013-03-11 10:32:00,
2013-03-11 03:42:00,43.0,29.0,-100.00,North,353,2.0,12.0,57,0.00,,,0.00,0.000000,,2013-03-11 10:42:00,
2013-03-11 03:52:00,43.0,29.0,-100.00,North,353,2.0,12.0,57,0.00,,,0.00,0.000000,,2013-03-11 10:52:00,
2013-03-11 04:22:00,44.0,29.0,-100.00,North,351,1.0,12.0,56,0.00,,,-99.99,0.000000,,2013-03-11 11:22:00,
2013-03-11 04:32:00,44.0,29.0,-100.00,North,351,1.0,12.0,56,0.00,,,-99.99,0.000000,,2013-03-11 11:32:00,
2013-03-11 04:42:00,44.0,29.0,-100.00,North,351,1.0,12.0,56,0.00,,,-99.99,0.000000,,2013-03-11 11:42:00,
2013-03-11 04:52:00,44.0,29.0,-100.00,North,351,1.0,12.0,56,0.00,,,-99.99,0.000000,,2013-03-11 11:52:00,
2013-03-11 05:22:00,43.0,26.0,-100.00,NNE,17,8.0,11.0,51,0.00,,,-99.99,0.000000,,2013-03-11 12:22:00,
2013-03-11 05:32:00,43.0,26.0,-100.00,NNE,17,8.0,11.0,51,0.00,,,-99.99,0.000000,,2013-03-11 12:32:00,
2013-03-11 05:42:00,43.0,26.0,-100.00,NNE,17,8.0,11.0,51,0.00,,,-99.99,0.000000,,2013-03-11 12:42:00,
2013-03-11 05:52:00,43.0,26.0,-100.00,NNE,17,8.0,11.0,51,0.00,,,-99.99,0.000000,,2013-03-11 12:52:00,
2013-03-11 06:22:00,42.0,30.0,-100.00,SSE,153,2.0,14.0,61,0.00,,,-99.99,0.000000,,2013-03-11 13:22:00,
2013-03-11 06:32:00,42.0,30.0,-100.00,SSE,153,2.0,14.0,61,0.00,,,-99.99,0.000000,,2013-03-11 13:32:00,
2013-03-11 06:42:00,42.0,30.0,-100.00,SSE,153,2.0,14.0,61,0.00,,,-99.99,0.000000,,2013-03-11 13:42:00,
2013-03-11 06:52:00,42.0,30.0,-100.00,SSE,153,2.0,14.0,61,0.00,,,-99.99,0.000000,,2013-03-11 13:52:00,
2013-03-11 07:22:00,40.0,29.0,-100.00,South,173,2.0,8.0,64,0.00,,,0.00,0.000000,,2013-03-11 14:22:00,
2013-03-11 07:32:00,40.0,29.0,-100.00,South,173,2.0,8.0,64,0.00,,,0.00,0.000000,,2013-03-11 14:32:00,
2013-03-11 07:42:00,40.0,29.0,-100.00,South,173,2.0,8.0,64,0.00,,,0.00,0.000000,,2013-03-11 14:42:00,
2013-03-11 07:52:00,40.0,29.0,-100.00,South,173,2.0,8.0,64,0.00,,,0.00,0.000000,,2013-03-11 14:52:00,
2013-03-11 08:22:00,42.0,28.0,-100.00,North,0,3.0,10.0,57,0.00,,,0.00,9.000000,,2013-03-11 15:22:00,
2013-03-11 08:32:00,42.0,28.0,-100.00,North,0,3.0,10.0,57,0.00,,,0.00,9.000000,,2013-03-11 15:32:00,
2013-03-11 08:42:00,42.0,28.0,-100.00,North,0,3.0,10.0,57,0.00,,,0.00,9.000000,,2013-03-11 15:42:00,
2013-03-11 08:52:00,42.0,28.0,-100.00,North,0,3.0,10.0,57,0.00,,,0.00,9.000000,,2013-03-11 15:52:00,
2013-03-11 09:22:00,46.0,29.0,-100.00,SE,146,4.0,8.0,51,0.00,,,0.00,172.000000,,2013-03-11 16:22:00,
2013-03-11 09:32:00,46.0,29.0,-100.00,SE,146,4.0,8.0,51,0.00,,,0.00,172.000000,,2013-03-11 16:32:00,
2013-03-11 09:42:00,46.0,29.0,-100.00,SE,146,4.0,8.0,51,0.00,,,0.00,172.000000,,2013-03-11 16:42:00,
2013-03-11 09:52:00,46.0,29.0,-100.00,SE,146,4.0,8.0,51,0.00,,,0.00,172.000000,,2013-03-11 16:52:00,
2013-03-11 10:24:00,51.0,28.0,-100.00,South,182,4.0,7.0,40,0.00,,,-99.99,479.000000,,2013-03-11 17:24:00,
2013-03-11 10:34:00,51.0,28.0,-100.00,South,182,4.0,7.0,40,0.00,,,-99.99,479.000000,,2013-03-11 17:34:00,
2013-03-11 10:42:00,51.0,28.0,-100.00,South,182,4.0,7.0,40,0.00,,,-99.99,479.000000,,2013-03-11 17:42:00,
2013-03-11 10:52:00,51.0,28.0,-100.00,South,182,4.0,7.0,40,0.00,,,-99.99,479.000000,,2013-03-11 17:52:00,
2013-03-11 11:22:00,57.0,27.0,-100.00,South,182,6.0,9.0,31,0.00,,,0.00,685.000000,,2013-03-11 18:22:00,
2013-03-11 11:32:00,57.0,27.0,-100.00,South,182,6.0,9.0,31,0.00,,,0.00,685.000000,,2013-03-11 18:32:00,
2013-03-11 11:42:00,57.0,27.0,-100.00,South,182,6.0,9.0,31,0.00,,,0.00,685.000000,,2013-03-11 18:42:00,
2013-03-11 11:52:00,57.0,27.0,-100.00,South,182,6.0,9.0,31,0.00,,,0.00,685.000000,,2013-03-11 18:52:00,
2013-03-11 12:22:00,62.0,28.0,-100.00,South,170,7.0,12.0,27,0.00,,,0.00,841.000000,,2013-03-11 19:22:00,
2013-03-11 12:32:00,62.0,28.0,-100.00,South,170,7.0,12.0,27,0.00,,,0.00,841.000000,,2013-03-11 19:32:00,
2013-03-11 12:42:00,62.0,28.0,-100.00,South,170,7.0,12.0,27,0.00,,,0.00,841.000000,,2013-03-11 19:42:00,
2013-03-11 12:52:00,62.0,28.0,-100.00,South,170,7.0,12.0,27,0.00,,,0.00,841.000000,,2013-03-11 19:52:00,
2013-03-11 13:22:00,65.0,26.0,-100.00,South,172,8.0,13.0,23,0.00,,,0.00,930.000000,,2013-03-11 20:22:00,
2013-03-11 13:32:00,65.0,26.0,-100.00,South,172,8.0,13.0,23,0.00,,,0.00,930.000000,,2013-03-11 20:32:00,
2013-03-11 13:43:00,65.0,26.0,-100.00,South,172,8.0,13.0,23,0.00,,,0.00,930.000000,,2013-03-11 20:43:00,
2013-03-11 13:52:00,65.0,26.0,-100.00,South,172,8.0,13.0,23,0.00,,,0.00,930.000000,,2013-03-11 20:52:00,
2013-03-11 14:22:00,70.0,27.0,-100.00,South,169,9.0,14.0,20,0.00,,,0.00,946.000000,,2013-03-11 21:22:00,
2013-03-11 14:32:00,70.0,27.0,-100.00,South,169,9.0,14.0,20,0.00,,,0.00,946.000000,,2013-03-11 21:32:00,
2013-03-11 14:43:00,70.0,27.0,-100.00,South,169,9.0,14.0,20,0.00,,,0.00,946.000000,,2013-03-11 21:43:00,
2013-03-11 14:52:00,70.0,27.0,-100.00,South,169,9.0,14.0,20,0.00,,,0.00,946.000000,,2013-03-11 21:52:00,
2013-03-11 15:22:00,74.0,6.0,-100.00,South,181,12.0,18.0,7,0.00,,,0.00,885.000000,,2013-03-11 22:22:00,
2013-03-11 15:32:00,74.0,6.0,-100.00,South,181,12.0,18.0,7,0.00,,,0.00,885.000000,,2013-03-11 22:32:00,
2013-03-11 16:22:00,72.0,1.0,-100.00,South,181,15.0,20.0,6,0.00,,,0.00,753.000000,,2013-03-11 23:22:00,
2013-03-11 17:22:00,70.0,40.0,-100.00,SSE,167,17.0,22.0,33,0.00,,,0.00,561.000000,,2013-03-12 00:22:00,
2013-03-11 17:32:00,70.0,40.0,-100.00,SSE,167,17.0,22.0,33,0.00,,,0.00,561.000000,,2013-03-12 00:32:00,
2013-03-11 17:42:00,70.0,40.0,-100.00,SSE,167,17.0,22.0,33,0.00,,,0.00,561.000000,,2013-03-12 00:42:00,
2013-03-11 17:52:00,70.0,40.0,-100.00,SSE,167,17.0,22.0,33,0.00,,,0.00,561.000000,,2013-03-12 00:52:00,
2013-03-11 18:22:00,68.0,40.0,-100.00,South,171,12.0,22.0,36,0.00,,,0.00,324.000000,,2013-03-12 01:22:00,
2013-03-11 18:32:00,68.0,40.0,-100.00,South,171,12.0,22.0,36,0.00,,,0.00,324.000000,,2013-03-12 01:32:00,
2013-03-11 18:42:00,68.0,40.0,-100.00,South,171,12.0,22.0,36,0.00,,,0.00,324.000000,,2013-03-12 01:42:00,
2013-03-11 18:52:00,68.0,40.0,-100.00,South,171,12.0,22.0,36,0.00,,,0.00,324.000000,,2013-03-12 01:52:00,
2013-03-11 19:22:00,61.0,40.0,-100.00,SSE,159,15.0,20.0,45,0.00,,,0.00,80.000000,,2013-03-12 02:22:00,
2013-03-11 19:32:00,61.0,40.0,-100.00,SSE,159,15.0,20.0,45,0.00,,,0.00,80.000000,,2013-03-12 02:32:00,
2013-03-11 19:42:00,61.0,40.0,-100.00,SSE,159,15.0,20.0,45,0.00,,,0.00,80.000000,,2013-03-12 02:42:00,
2013-03-11 19:51:00,61.0,40.0,-100.00,SSE,159,15.0,20.0,45,0.00,,,0.00,80.000000,,2013-03-12 02:51:00,
2013-03-11 20:22:00,58.0,43.0,-100.00,SSE,155,12.0,21.0,57,0.00,,,0.00,0.000000,,2013-03-12 03:22:00,
2013-03-11 20:42:00,58.0,43.0,-100.00,SSE,155,12.0,21.0,57,0.00,,,0.00,0.000000,,2013-03-12 03:42:00,
2013-03-11 20:51:00,58.0,43.0,-100.00,SSE,155,12.0,21.0,57,0.00,,,0.00,0.000000,,2013-03-12 03:51:00,
2013-03-11 21:42:00,56.0,42.0,-100.00,North,8,5.0,12.0,60,0.00,,,0.00,0.000000,,2013-03-12 04:42:00,
2013-03-11 21:52:00,56.0,42.0,-100.00,North,8,5.0,12.0,60,0.00,,,0.00,0.000000,,2013-03-12 04:52:00,
2013-03-11 22:42:00,55.0,41.0,-100.00,NW,318,5.0,11.0,58,0.00,,,0.00,0.000000,,2013-03-12 05:42:00,
2013-03-11 22:52:00,55.0,41.0,-100.00,NW,318,5.0,11.0,58,0.00,,,0.00,0.000000,,2013-03-12 05:52:00,
2013-03-11 23:22:00,51.0,42.0,-100.00,North,356,1.0,7.0,70,0.00,,,0.00,0.000000,,2013-03-12 06:22:00,